Temp
7 7 7 7 7 7 7 7 7 6 6 6 6 6 6 6 6 6 6 6 6 6 6 6 6 7 7 6 6 6 6 5 5 5 5 5 4 4 4 4 4 4 3 3 3 4 4 4 4 4 4 4 4 4 4 4 4 5 5 5 5 5 5 5 5 5 5 5 6 6 6 6 6 5 5 5 4 4 5 5 5 5 5 5 5 5
7 7 7 7 7 7 7 7 6 6 6 6 6 6 6 6 6 6 6 6 6 6 6 6 6 6 6 6 6 6 6 5 5 5 5 4 4 4 4 4 4 4 4 3 3 3 3 3 3 4 4 4 4 4 4 4 4 4 5 5 5 5 5 5 5 5 5 6 6 6 6 6 5 5 5 4 4 4 4 4 5 5 5 5 5 5
6 6 6 6 6 6 6 6 6 6 6 6 6 6 6 6 6 6 6 6 6 6 6 6 6 6 6 6 6 6 6 5 5 5 5 4 4 4 4 4 4 4 4 4 3 3 3 3 3 3 3 4 4 4 4 4 4 4 4 4 5 5 5 5 5 5 5 5 6 6 5 5 5 5 5 5 4 4 4 4 4 4 5 5 5 5
6 7 7 6 6 6 6 6 6 6 6 6 6 6 6 6 6 6 6 6 6 6 6 6 6 6 6 6 6 6 6 5 5 5 5 4 4 4 4 4 4 4 4 4 4 3 3 3 3 3 3 3 4 4 3 3 4 4 4 4 4 4 4 5 5 5 5 5 5 5 5 5 5 5 5 5 4 4 4 4 4 4 4 4 4 5
7 7 7 7 6 6 6 6 6 6 6 6 6 6 6 6 6 6 6 6 6 6 6 6 6 6 6 6 6 6 5 5 5 5 5 5 4 4 4 4 4 4 4 3 3 3 4 4 4 3 3 3 3 3 3 3 3 3 4 4 4 4 4 4 4 4 4 4 5 5 5 5 5 5 5 5 5 4 4 4 4 4 4 4 4 4
7 7 7 6 6 6 6 6 6 6 6 6 6 5 5 5 5 5 5 5 5 5 6 6 6 6 6 6 5 5 5 5 5 5 5 4 4 4 4 4 4 4 4 4 4 4 4 4 4 4 3 3 3 3 3 3 3 3 3 4 4 4 4 4 4 4 4 4 4 4 4 5 5 5 5 5 5 5 5 4 4 4 3 3 3 3
6 6 6 6 6 6 6 6 5 5 5 5 5 5 5 5 5 5 5 5 5 5 5 5 6 6 6 6 5 5 5 5 5 5 4 4 4 4 4 4 4 4 4 4 4 4 4 4 4 4 4 3 3 3 3 3 3 3 3 3 3 4 4 4 3 3 3 3 4 4 4 4 4 5 5 5 5 5 5 5 4 4 3 3 3 3
5 5 6 6 6 6 6 6 5 5 5 5 5 5 5 5 5 5 5 5 5 5 5 5 5 6 6 5 5 5 5 5 5 5 4 4 4 4 4 4 4 4 4 4 4 4 4 4 4 4 4 3 3 3 3 3 3 3 3 3 3 3 3 3 3 3 3 3 3 3 4 4 4 4 4 4 5 5 5 5 5 4 4 4 3 3
5 5 5 5 6 6 5 5 5 5 5 5 5 5 5 5 5 5 5 5 5 5 5 5 5 5 5 5 5 5 5 5 5 4 4 4 4 4 4 4 4 4 4 4 4 4 4 4 4 4 4 3 3 3 3 3 3 3 3 3 3 3 3 3 3 3 3 3 3 3 3 3 4 4 4 4 4 4 4 5 5 5 5 4 4 3
5 5 5 5 5 5 5 5 5 5 5 5 5 5 5 5 5 5 5 5 5 5 5 5 5 5 5 5 5 5 5 4 4 4 4 4 4 4 4 4 4 4 4 4 4 4 4 4 4 4 4 4 3 3 3 3 3 3 3 3 3 3 3 3 3 2 2 2 2 3 3 3 3 3 3 3 4 4 4 4 4 4 5 5 4 4
5 5 5 4 5 5 5 5 4 4 4 5 5 5 5 5 4 4 5 4 4 4 4 4 4 4 5 5 5 5 4 4 4 4 4 4 4 4 4 4 4 4 4 4 4 4 4 4 4 4 4 3 3 3 3 3 3 3 3 3 3 3 3 3 3 2 2 2 2 2 3 3 3 3 3 3 3 3 3 3 4 4 4 4 4 4
4 4 4 4 4 4 4 4 4 4 4 4 5 5 4 4 4 4 4 4 4 4 4 4 4 4 4 4 4 4 4 4 4 4 4 4 4 3 3 3 3 3 3 4 4 4 4 4 4 3 3 3 3 3 3 3 3 3 3 3 3 3 3 3 3 3 2 2 2 2 2 3 3 2 2 2 2 2 2 3 3 3 3 4 4 4
4 4 3 3 3 3 3 3 3 3 4 4 4 4 4 4 4 4 4 4 4 4 4 4 4 4 4 4 4 4 4 4 4 4 3 3 3 3 3 3 3 3 4 4 4 4 4 3 3 3 3 3 3 3 3 3 3 3 3 3 3 3 3 3 3 3 2 2 2 2 2 2 2 2 2 2 2 2 2 2 2 3 3 3 3 3
3 3 3 2 2 2 2 3 3 3 3 4 4 4 4 4 4 4 4 4 4 4 4 4 4 4 4 4 4 4 4 4 4 3 3 3 3 3 3 3 3 3 3 3 3 3 3 3 3 3 3 3 3 3 3 3 3 3 3 3 3 4 4 3 3 3 2 2 2 2 2 2 2 2 1 1 1 1 2 2 2 2 2 2 2 2
2 2 2 1 1 1 1 2 2 3 3 3 3 3 3 3 3 3 3 3 3 3 3 4 4 4 3 3 3 3 3 3 4 3 3 3 3 3 3 3 3 3 3 3 3 3 3 3 3 3 3 3 3 3 3 3 3 3 3 3 3 4 4 3 3 2 2 1 1 1 2 1 1 1 1 1 1 1 1 1 1 1 1 2 2 2
2 2 1 0 0 0 1 2 2 2 2 2 2 2 3 3 3 3 3 3 3 3 3 3 3 3 3 3 3 3 3 3 3 3 3 3 3 3 3 3 3 3 3 3 3 3 3 3 3 3 3 3 3 3 3 3 3 3 3 3 3 3 3 3 2 1 1 1 1 1 1 1 1 1 1 1 1 1 1 1 1 1 1 1 1 1
2 1 1 0 -0 -0 0 1 2 2 2 2 2 2 2 3 3 3 3 3 3 3 3 3 3 3 3 2 2 2 3 3 3 3 3 3 3 3 3 2 2 2 2 2 2 2 3 3 2 2 2 2 2 2 2 3 3 3 3 3 3 2 2 1 1 1 0 1 1 1 1 0 0 0 0 1 1 1 1 1 1 0 0 0 0 0
1 1 1 0 -0 -0 0 1 1 1 2 2 2 2 2 2 2 2 2 2 2 2 2 2 2 3 3 2 2 2 2 2 2 3 3 2 2 2 2 2 2 2 2 2 2 2 2 2 2 2 2 2 2 2 2 2 2 2 2 2 1 1 1 1 0 0 0 0 1 1 1 0 0 0 0 0 0 0 0 0 0 0 0 -0 -0 -0
0 0 0 -0 -0 -0 0 1 1 1 1 2 2 2 2 2 2 2 2 2 2 2 2 2 1 1 1 1 1 1 1 2 2 2 2 2 2 2 2 2 2 2 2 2 2 2 2 2 2 2 2 2 2 2 2 2 2 1 1 1 1 1 0 0 0 0 0 0 0 1 1 1 0 0 0 0 0 0 0 0 0 0 0 -0 -0 -0
-0 -0 -0 -0 0 0 0 0 1 1 1 1 1 1 1 1 1 1 1 1 1 1 1 1 1 0 0 0 0 1 1 1 1 2 2 1 1 1 1 1 1 1 2 2 2 2 2 2 2 1 2 2 2 2 2 2 1 1 0 0 0 0 0 0 0 0 0 0 0 0 1 0 0 0 0 0 0 0 0 0 0 -0 -0 -0 -0 -0
-0 -0 0 1 1 0 -0 -0 0 0 0 1 1 1 1 1 1 1 1 1 1 1 1 1 1 0 -0 -0 -0 0 0 0 1 1 1 1 1 1 1 1 1 1 1 2 2 1 1 1 1 1 1 1 2 2 2 1 1 0 -0 -0 -0 -0 -0 0 -0 -0 0 0 0 0 0 0 0 0 0 0 0 0 -0 -0 -0 -0 -0 -0 -0 -0
0 -0 0 1 1 0 -0 -0 -0 -0 0 0 1 1 1 1 1 1 1 1 1 1 1 0 0 -0 -0 -0 -1 -0 -0 -0 -0 0 0 1 0 0 0 0 0 0 1 1 1 1 1 1 1 1 1 1 1 1 1 1 0 -0 -0 -0 -0 -0 -0 -0 -0 -0 -0 -0 0 0 0 0 -0 -0 -0 0 0 -0 -0 -0 -0 -0 -0 -0 -0 -0
0 -0 -0 0 0 0 -0 -0 -0 -0 -0 0 0 1 0 0 0 0 0 0 0 0 0 -0 -0 -1 -1 -1 -1 -1 -1 -1 -1 -0 -0 1 0 -0 -1 -0 -1 -0 0 1 1 1 1 1 1 1 1 1 1 1 1 0 -0 -1 -1 -1 -1 -1 -1 -0 -0 -0 -0 -0 -0 -0 -0 -0 -0 -0 -0 -0 -0 -0 -0 -1 -1 -1 -1 -1 -1 -1
0 -0 -0 -0 -0 -0 -0 -0 -1 -0 -0 -0 -0 -0 -0 -0 -0 -0 -0 -0 -0 -0 -0 -0 -1 -1 -1 -2 -2 -1 -1 -1 -1 -1 -1 -0 -1 -1 -1 -1 -1 -1 -1 0 0 0 0 1 1 1 0 0 0 0 0 -0 -1 -1 -1 -1 -1 -1 -1 -1 -1 -1 -1 -0 -0 -0 -0 -0 -0 -0 -0 -0 -0 -0 -1 -1 -1 -1 -1 -1 -1 -1
-0 -0 -0 -0 -1 -1 -1 -1 -1 -1 -1 -1 -0 -0 -1 -1 -1 -1 -1 -1 -1 -1 -0 -0 -1 -2 -2 -2 -2 -1 -1 -1 -2 -2 -1 -2 -2 -2 -2 -2 -2 -2 -2 -0 0 0 0 0 1 0 0 -0 -0 -0 -0 -1 -1 -1 -1 -1 -1 -1 -1 -1 -1 -1 -1 -1 -1 -0 -0 -0 -0 -0 -0 -0 -1 -1 -1 -1 -1 -1 -1 -1 -1 -1
-1 -1 -1 -1 -1 -1 -1 -1 -1 -1 -1 -1 -1 -1 -1 -1 -1 -1 -1 -1 -1 -1 -0 -0 -1 -2 -2 -2 -2 -2 -2 -2 -2 -2 -2 -3 -3 -3 -3 -2 -3 -3 -2 -1 0 0 -0 0 0 0 -0 -0 -0 -1 -1 -1 -1 -1 -1 -1 -1 -1 -1 -1 -1 -1 -1 -1 -1 -0 -0 -0 -0 -0 -1 -1 -1 -1 -1 -1 -1 -1 -1 -1 -1 -1
-1 -1 -1 -1 -1 -1 -1 -2 -2 -2 -1 -1 -1 -1 -1 -1 -1 -1 -1 -1 -1 -1 -1 -1 -1 -2 -2 -2 -2 -2 -3 -3 -3 -3 -3 -3 -3 -3 -3 -3 -3 -4 -3 -2 -1 -1 -1 -1 -0 -0 -0 -0 -1 -1 -1 -1 -1 -1 -1 -1 -1 -1 -1 -1 -1 -1 -1 -1 -1 -0 -0 -0 -1 -1 -1 -1 -2 -2 -2 -2 -2 -2 -2 -2 -1 -1
-1 -1 -1 -1 -1 -1 -1 -2 -2 -2 -2 -2 -2 -2 -2 -2 -1 -1 -1 -2 -2 -1 -1 -2 -2 -2 -2 -3 -3 -3 -3 -3 -3 -3 -3 -4 -4 -4 -4 -4 -4 -4 -4 -3 -2 -1 -1 -1 -1 -1 -1 -1 -1 -1 -1 -1 -1 -1 -1 -1 -1 -1 -1 -1 -1 -1 -1 -1 -1 -1 -1 -1 -1 -1 -2 -2 -2 -2 -2 -2 -2 -2 -2 -2 -2 -2
-1 -1 -1 -1 -1 -1 -2 -2 -2 -2 -2 -2 -2 -2 -2 -2 -1 -1 -2 -3 -2 -2 -2 -3 -3 -4 -4 -3 -3 -4 -4 -4 -4 -4 -4 -4 -5 -5 -4 -5 -5 -5 -5 -5 -4 -3 -3 -2 -2 -1 -1 -1 -1 -1 -1 -1 -1 -1 -1 -0 -1 -1 -1 -1 -1 -1 -1 -1 -1 -1 -1 -1 -2 -2 -2 -2 -2 -2 -2 -2 -2 -2 -2 -2 -2 -2
-1 -1 -1 -1 -1 -1 -1 -2 -2 -2 -2 -2 -2 -2 -2 -2 -2 -2 -3 -3 -3 -2 -3 -3 -4 -4 -4 -4 -4 -4 -4 -4 -4 -4 -5 -5 -5 -5 -5 -6 -6 -6 -6 -6 -6 -5 -5 -3 -3 -2 -2 -2 -1 -1 -1 -1 -1 -1 -1 -1 -1 -1 -1 -1 -1 -1 -1 -1 -1 -1 -1 -2 -2 -2 -2 -2 -2 -3 -3 -3 -3 -3 -3 -3 -3 -2
-1 -1 -1 -1 -2 -2 -2 -2 -2 -2 -2 -2 -2 -2 -2 -2 -2 -2 -3 -3 -3 -3 -3 -3 -4 -4 -4 -4 -4 -5 -5 -5 -5 -5 -6 -6 -6 -6 -6 -6 -7 -7 -7 -7 -7 -7 -6 -5 -4 -3 -3 -3 -3 -2 -2 -2 -2 -2 -1 -1 -1 -1 -1 -1 -1 -1 -1 -1 -1 -1 -1 -2 -2 -2 -2 -3 -3 -3 -3 -3 -3 -3 -3 -3 -3 -3
-1 -1 -1 -2 -2 -2 -2 -2 -2 -2 -2 -2 -2 -2 -2 -2 -2 -3 -3 -3 -3 -3 -3 -3 -4 -4 -5 -5 -5 -5 -5 -5 -5 -5 -6 -6 -6 -6 -6 -7 -7 -7 -7 -7 -7 -7 -7 -7 -6 -5 -5 -5 -4 -4 -3 -3 -2 -2 -2 -2 -2 -2 -2 -2 -2 -2 -2 -1 -1 -1 -1 -2 -2 -2 -2 -3 -3 -3 -3 -3 -3 -4 -4 -4 -4 -4
-1 -1 -1 -2 -2 -2 -2 -2 -2 -2 -2 -2 -3 -3 -3 -3 -3 -3 -3 -3 -3 -3 -3 -4 -4 -5 -5 -6 -6 -6 -5 -5 -5 -6 -6 -6 -6 -6 -7 -7 -7 -7 -7 -7 -7 -7 -7 -7 -6 -6 -6 -5 -5 -5 -4 -4 -3 -3 -3 -3 -3 -3 -2 -2 -2 -2 -2 -2 -1 -1 -1 -2 -2 -2 -2 -3 -3 -3 -3 -3 -3 -4 -4 -4 -4 -4
-2 -2 -2 -2 -2 -2 -2 -2 -2 -2 -2 -2 -3 -3 -3 -3 -3 -3 -3 -3 -3 -4 -4 -4 -4 -5 -5 -6 -6 -6 -6 -5 -5 -6 -6 -7 -7 -7 -7 -7 -7 -7 -7 -7 -7 -7 -6 -6 -6 -6 -6 -6 -5 -5 -5 -4 -4 -4 -4 -4 -4 -4 -3 -3 -3 -3 -3 -2 -2 -2 -2 -2 -2 -2 -2 -2 -3 -3 -3 -3 -3 -4 -4 -4 -4 -4
-2 -2 -2 -2 -2 -2 -2 -2 -2 -2 -3 -3 -3 -3 -3 -3 -3 -3 -4 -4 -4 -4 -4 -4 -4 -5 -5 -5 -6 -6 -6 -5 -5 -6 -6 -7 -7 -7 -7 -7 -7 -7 -7 -7 -6 -6 -6 -6 -6 -6 -6 -6 -5 -5 -5 -5 -5 -5 -5 -4 -4 -4 -4 -4 -4 -3 -3 -3 -3 -2 -2 -2 -2 -3 -3 -3 -3 -3 -3 -3 -3 -3 -3 -3 -4 -4
-2 -2 -2 -2 -2 -2 -3 -3 -3 -3 -3 -3 -3 -3 -3 -3 -4 -4 -4 -4 -4 -4 -5 -5 -5 -5 -5 -5 -5 -5 -5 -5 -5 -5 -6 -7 -7 -7 -7 -7 -7 -7 -7 -7 -7 -6 -6 -6 -6 -6 -6 -6 -5 -5 -5 -5 -5 -5 -5 -5 -4 -4 -4 -4 -4 -4 -4 -4 -3 -3 -3 -3 -3 -3 -3 -3 -3 -3 -3 -3 -3 -3 -3 -3 -3 -3
-2 -2 -2 -2 -2 -3 -3 -3 -3 -3 -3 -3 -3 -3 -3 -4 -4 -4 -4 -4 -5 -5 -5 -5 -5 -5 -5 -5 -5 -5 -5 -5 -5 -6 -6 -6 -7 -7 -7 -7 -7 -7 -7 -7 -7 -6 -6 -6 -6 -6 -6 -6 -6 -5 -5 -5 -5 -5 -5 -5 -5 -5 -5 -4 -4 -4 -4 -4 -4 -3 -3 -3 -3 -3 -3 -3 -3 -3 -3 -3 -3 -3 -3 -3 -3 -3
-2 -2 -2 -3 -3 -3 -3 -3 -3 -3 -3 -3 -3 -4 -4 -4 -4 -4 -4 -5 -5 -5 -5 -5 -5 -5 -6 -6 -6 -6 -6 -6 -6 -6 -6 -6 -7 -7 -7 -7 -7 -7 -7 -7 -7 -7 -7 -6 -6 -6 -6 -6 -6 -6 -6 -6 -6 -6 -6 -5 -5 -5 -5 -5 -5 -5 -5 -4 -4 -4 -3 -3 -3 -3 -4 -4 -3 -3 -3 -3 -3 -3 -3 -3 -3 -3
-2 -2 -2 -3 -3 -3 -3 -3 -3 -3 -3 -3 -3 -4 -4 -4 -4 -4 -5 -5 -5 -5 -5 -5 -5 -5 -6 -6 -6 -6 -6 -6 -6 -6 -6 -6 -6 -6 -7 -7 -7 -7 -7 -7 -7 -7 -7 -7 -6 -6 -6 -6 -6 -6 -6 -6 -6 -6 -6 -5 -5 -5 -4 -4 -5 -5 -5 -4 -4 -4 -4 -4 -3 -4 -4 -4 -4 -4 -4 -3 -3 -3 -3 -3 -3 -3
-2 -2 -3 -3 -3 -3 -3 -3 -3 -3 -3 -3 -3 -4 -4 -4 -4 -4 -5 -5 -5 -5 -5 -5 -5 -5 -6 -6 -6 -6 -6 -6 -6 -6 -6 -6 -6 -6 -7 -7 -6 -6 -6 -6 -7 -7 -7 -7 -7 -7 -7 -7 -7 -7 -7 -6 -6 -6 -6 -6 -5 -5 -4 -4 -5 -5 -5 -5 -4 -4 -4 -4 -4 -4 -4 -4 -4 -4 -4 -4 -4 -4 -3 -3 -3 -3
-2 -2 -3 -3 -3 -3 -3 -3 -3 -3 -3 -4 -4 -4 -4 -4 -4 -4 -5 -5 -5 -5 -5 -5 -5 -5 -6 -6 -6 -6 -6 -6 -6 -6 -6 -6 -6 -6 -6 -6 -6 -6 -6 -6 -6 -7 -7 -7 -7 -7 -7 -7 -7 -7 -7 -7 -6 -6 -6 -6 -6 -6 -5 -5 -5 -5 -5 -5 -5 -4 -4 -4 -4 -4 -4 -4 -4 -4 -4 -4 -4 -4 -4 -3 -3 -4
-2 -2 -2 -3 -3 -3 -3 -3 -3 -3 -4 -4 -4 -4 -4 -4 -4 -5 -5 -5 -5 -5 -5 -5 -5 -6 -6 -6 -6 -6 -6 -6 -6 -6 -6 -6 -6 -6 -6 -6 -6 -6 -6 -7 -7 -7 -7 -7 -7 -8 -8 -7 -7 -7 -7 -7 -7 -7 -6 -6 -6 -6 -6 -5 -5 -5 -5 -5 -5 -4 -4 -4 -4 -4 -4 -4 -4 -4 -4 -4 -4 -4 -4 -4 -4 -4
-2 -2 -3 -3 -3 -3 -3 -3 -3 -4 -4 -4 -4 -4 -4 -4 -4 -5 -5 -5 -5 -5 -5 -5 -6 -6 -6 -6 -6 -6 -6 -6 -6 -6 -6 -6 -6 -6 -6 -6 -7 -7 -7 -7 -7 -7 -7 -7 -8 -8 -8 -8 -8 -8 -8 -7 -7 -7 -7 -7 -7 -6 -6 -6 -5 -5 -5 -5 -5 -5 -4 -4 -4 -5 -5 -5 -4 -4 -4 -4 -4 -4 -4 -4 -4 -4
-2 -3 -3 -3 -3 -3 -3 -3 -3 -4 -4 -4 -4 -4 -4 -5 -5 -5 -5 -5 -5 -5 -6 -6 -6 -6 -6 -6 -6 -7 -7 -7 -7 -7 -7 -7 -7 -7 -7 -7 -7 -7 -7 -7 -8 -8 -8 -8 -8 -8 -8 -8 -8 -8 -8 -8 -7 -7 -7 -7 -7 -6 -6 -6 -6 -6 -6 -6 -6 -5 -5 -5 -5 -5 -5 -5 -5 -5 -5 -5 -5 -4 -4 -4 -5 -5
-3 -3 -3 -3 -3 -3 -3 -3 -4 -4 -4 -4 -4 -4 -5 -5 -5 -5 -5 -5 -5 -6 -6 -6 -6 -6 -7 -7 -7 -7 -7 -7 -7 -7 -7 -7 -7 -7 -7 -7 -7 -7 -7 -8 -8 -8 -8 -8 -8 -8 -8 -8 -8 -8 -8 -8 -8 -7 -7 -7 -7 -7 -7 -6 -6 -7 -6 -6 -6 -6 -5 -5 -5 -6 -6 -6 -6 -6 -5 -5 -5 -5 -5 -5 -5 -5
-3 -3 -3 -3 -3 -3 -3 -4 -4 -4 -4 -4 -4 -5 -5 -5 -5 -5 -5 -5 -6 -6 -6 -6 -6 -7 -7 -7 -7 -7 -7 -7 -7 -7 -7 -8 -8 -8 -8 -8 -8 -8 -8 -8 -8 -8 -8 -8 -8 -8 -8 -8 -8 -8 -8 -8 -8 -8 -7 -7 -7 -7 -7 -7 -7 -7 -7 -7 -6 -6 -6 -6 -6 -6 -6 -6 -6 -6 -6 -6 -6 -6 -6 -5 -5 -5
-3 -3 -4 -4 -4 -4 -4 -4 -4 -4 -4 -4 -5 -5 -5 -5 -5 -5 -6 -6 -6 -6 -6 -6 -6 -7 -7 -7 -7 -7 -7 -8 -8 -8 -8 -8 -8 -8 -8 -8 -8 -8 -8 -8 -8 -8 -8 -8 -8 -8 -8 -8 -8 -8 -8 -8 -8 -8 -8 -7 -7 -7 -7 -7 -7 -7 -7 -7 -6 -6 -6 -6 -6 -6 -6 -6 -6 -6 -6 -6 -6 -6 -6 -5 -5 -5
-3 -3 -4 -4 -4 -4 -4 -4 -4 -4 -4 -5 -5 -5 -5 -5 -5 -6 -6 -6 -6 -6 -6 -6 -7 -7 -8 -8 -8 -8 -8 -8 -8 -8 -8 -8 -9 -9 -9 -9 -9 -9 -9 -8 -8 -8 -8 -8 -8 -8 -8 -8 -8 -8 -8 -8 -8 -8 -8 -8 -8 -8 -7 -7 -7 -7 -7 -6 -6 -6 -6 -6 -6 -6 -6 -6 -6 -6 -6 -6 -6 -6 -6 -6 -5 -5
-3 -3 -4 -4 -4 -4 -4 -4 -4 -4 -4 -5 -5 -5 -5 -5 -6 -6 -6 -6 -6 -6 -6 -7 -7 -7 -8 -8 -8 -8 -8 -8 -8 -8 -8 -9 -9 -9 -9 -9 -9 -9 -9 -9 -9 -8 -8 -8 -8 -8 -8 -8 -8 -8 -8 -8 -8 -7 -7 -8 -8 -8 -8 -7 -7 -7 -7 -6 -6 -6 -6 -6 -6 -6 -6 -6 -6 -6 -6 -6 -6 -6 -6 -6 -6 -6
-3 -4 -4 -5 -4 -4 -4 -4 -4 -4 -4 -5 -5 -5 -5 -5 -6 -6 -6 -6 -6 -6 -6 -7 -7 -8 -8 -8 -8 -8 -8 -8 -8 -9 -9 -9 -9 -9 -9 -9 -9 -9 -8 -9 -9 -9 -8 -8 -8 -8 -8 -7 -7 -8 -8 -8 -7 -7 -7 -7 -7 -7 -7 -7 -7 -7 -6 -6 -6 -6 -6 -6 -7 -7 -7 -6 -6 -6 -6 -6 -6 -6 -6 -6 -6 -6
-4 -4 -4 -5 -4 -4 -4 -4 -4 -4 -5 -5 -5 -5 -5 -6 -6 -6 -6 -6 -6 -6 -7 -7 -7 -8 -8 -8 -8 -8 -8 -8 -9 -9 -9 -9 -9 -9 -9 -9 -9 -9 -8 -8 -9 -9 -8 -8 -8 -8 -7 -7 -7 -7 -7 -7 -7 -7 -7 -7 -7 -7 -7 -7 -6 -6 -6 -6 -6 -7 -7 -7 -7 -7 -7 -7 -7 -7 -7 -7 -7 -7 -6 -6 -6 -6
Height
807 808 809 810 811 811 812 813 814 814 815 815 816 816 816 817 817 817 818 818 819 819 819 820 820 821 821 821 821 821 822 822 822 822 822 823 823 823 823 823 823 823 823 823 823 823 823 822 822 822 822 821 821 821 821 820 820 819 818 818 817 817 816 816 815 814 814 813 812 811 811 810 810 809 809 808 808 807 807 806 806 806 806 806 806 805
806 807 808 809 810 811 811 812 813 814 814 815 815 816 816 816 816 817 817 818 818 818 819 819 819 820 821 821 821 821 821 821 822 822 822 822 822 822 823 823 823 823 823 822 822 822 822 822 822 822 821 821 821 821 820 820 819 819 818 818 817 816 816 815 815 814 813 812 812 811 811 810 809 809 808 808 807 807 806 806 806 806 806 805 805 805
805 806 807 808 809 810 811 811 812 813 814 814 815 815 816 816 816 816 817 817 817 818 818 818 819 819 820 820 820 821 821 821 821 821 821 822 822 822 822 822 822 822 822 822 822 822 822 822 821 821 821 821 821 820 820 819 819 818 818 817 817 816 816 815 814 813 813 812 811 811 810 810 809 808 808 807 807 806 806 805 805 805 805 805 804 804
804 806 806 808 809 809 810 811 811 812 813 814 814 815 815 815 816 816 816 816 817 817 817 818 818 819 819 819 820 820 820 821 821 821 821 821 821 821 822 822 822 822 822 822 821 821 821 821 821 821 821 821 820 820 819 819 818 818 817 817 816 816 815 815 814 813 812 812 811 810 810 809 808 808 807 807 806 806 805 805 804 804 804 804 803 803
803 805 806 807 808 808 809 810 811 811 812 813 814 814 815 815 815 816 816 816 816 816 817 817 817 818 818 819 819 819 820 820 820 821 821 821 821 821 821 821 821 821 821 821 821 821 821 821 821 821 821 820 820 819 819 818 818 817 817 816 816 816 815 814 814 813 812 811 811 810 809 809 808 807 807 806 806 805 805 804 804 803 803 803 802 802
802 803 805 806 807 807 808 809 810 811 811 812 813 813 814 814 815 815 815 816 816 816 816 816 817 817 818 818 818 819 819 819 820 820 820 820 820 820 820 821 821 821 821 820 820 820 820 820 820 820 820 820 819 819 818 818 817 817 816 816 816 815 815 814 813 812 812 811 811 810 809 808 807 807 806 806 805 805 804 803 803 803 802 802 801 801
801 802 804 805 806 806 807 808 809 809 810 811 812 812 813 814 814 814 815 815 815 816 816 816 816 816 817 817 818 818 818 819 819 819 819 820 820 820 820 820 820 820 820 820 820 820 820 819 819 819 819 819 819 818 818 817 817 816 816 816 815 815 814 813 813 812 811 811 810 809 809 808 807 806 806 805 805 804 803 803 802 802 801 801 801 800
800 801 803 804 805 806 806 807 808 808 809 810 811 811 812 813 813 814 814 815 815 815 815 815 816 816 816 816 817 817 818 818 818 818 819 819 819 819 819 819 819 819 819 819 819 819 819 819 819 818 818 818 818 818 817 817 816 816 815 815 815 814 814 813 812 812 811 811 810 809 808 808 807 806 806 805 804 803 803 802 802 801 801 800 800 799
799 801 802 802 803 804 805 806 807 807 808 809 810 811 811 812 813 813 814 814 814 815 815 815 815 815 816 816 816 816 817 817 817 818 818 818 818 818 818 818 818 818 818 818 818 818 818 818 818 817 817 817 817 817 816 816 815 815 815 814 814 813 813 812 812 811 811 810 809 809 808 807 806 806 805 804 804 803 802 801 801 800 800 799 799 798
798 799 800 801 802 803 804 805 806 807 807 808 809 810 811 811 812 813 813 813 814 814 814 814 814 815 815 815 816 816 816 816 817 817 817 817 817 817 817 817 817 817 817 817 817 817 817 817 817 816 816 816 816 816 815 815 815 814 814 814 813 813 812 812 811 811 810 810 809 808 808 807 806 806 805 804 803 802 802 801 800 800 799 798 798 797
797 798 799 800 801 802 803 804 805 806 806 807 808 809 810 811 811 812 813 813 813 813 813 814 814 814 815 815 815 815 816 816 816 816 816 816 817 817 817 816 816 816 816 816 816 816 816 816 816 816 816 815 815 815 815 814 814 814 813 813 812 812 811 811 811 810 810 809 809 808 807 806 806 805 804 803 803 802 801 801 800 799 798 798 797 796
796 797 798 799 800 801 802 803 804 805 806 806 807 808 809 810 811 811 812 812 813 813 813 813 813 814 814 814 814 815 815 815 815 815 816 816 816 816 816 816 816 815 816 816 815 815 815 815 815 815 815 815 814 814 814 814 813 813 813 812 812 811 811 810 810 809 809 808 808 807 807 806 805 805 804 803 802 801 801 800 799 798 798 797 796 796
796 796 797 798 800 801 801 802 803 804 805 805 806 807 808 809 810 811 811 812 812 812 812 813 813 813 813 814 814 814 814 814 815 815 815 815 815 816 815 815 815 815 815 814 814 814 814 814 814 814 814 814 814 813 813 813 813 812 812 811 811 810 810 809 809 808 808 808 807 807 806 806 805 804 803 802 802 801 800 799 799 798 797 796 796 795
795 796 797 798 799 800 801 801 802 803 804 805 805 806 807 808 809 810 811 811 811 812 812 812 812 812 813 813 813 813 814 814 814 814 815 815 815 815 815 814 814 814 814 814 814 813 814 813 813 813 813 813 813 813 813 812 812 812 811 811 810 809 809 808 808 807 807 807 806 806 806 805 804 803 803 802 801 800 800 799 798 797 796 796 795 794
795 796 797 798 799 800 801 801 801 802 803 804 805 806 807 808 809 810 810 811 811 811 811 812 812 812 812 813 813 813 813 813 814 814 814 814 814 814 814 813 813 813 813 813 813 813 813 813 813 813 813 813 812 812 812 812 811 811 810 810 809 809 808 807 807 806 806 806 806 805 805 804 803 803 802 801 801 800 799 798 797 796 796 795 794 794
794 795 796 798 799 800 800 800 801 802 803 804 805 806 807 808 809 809 810 810 811 811 811 811 811 812 812 812 812 813 813 813 813 813 814 813 813 813 813 813 813 812 812 812 812 812 813 812 812 812 812 812 812 811 811 811 811 810 809 809 808 808 807 806 806 806 806 805 805 804 804 803 802 802 801 801 800 799 798 797 797 796 795 795 794 793
794 795 796 797 799 800 800 800 801 801 803 804 806 806 807 808 808 809 809 810 810 810 811 811 811 811 811 812 812 812 812 812 813 813 813 813 812 812 812 812 812 812 812 812 812 812 812 812 812 812 811 811 811 811 811 810 810 809 808 808 807 807 806 806 806 805 805 804 804 803 803 802 801 801 800 800 799 798 797 796 796 795 795 794 793 792
794 795 796 797 798 799 800 800 801 801 803 804 806 806 807 808 808 809 809 809 810 810 810 810 811 811 811 811 811 811 812 812 812 812 812 812 812 812 812 812 812 811 811 811 811 812 812 811 811 811 811 810 810 810 810 809 809 808 808 807 806 806 806 805 805 804 804 803 803 802 802 801 801 800 799 799 798 797 796 796 795 794 794 793 792 791
794 795 795 796 797 799 799 800 801 802 803 804 805 806 807 808 808 808 809 809 809 809 810 810 810 811 811 811 811 811 811 811 811 812 812 811 811 811 811 811 811 811 811 811 811 811 811 811 811 811 810 810 809 809 809 808 808 807 807 806 806 805 805 804 803 803 802 802 801 801 801 800 800 799 798 798 797 796 796 795 794 793 793 792 791 790
795 795 796 796 797 798 800 800 801 802 803 804 805 806 806 807 808 808 808 809 809 809 810 810 810 810 810 811 811 811 811 811 811 811 811 811 811 811 811 811 811 811 811 811 811 811 810 810 810 810 809 809 809 808 808 808 807 807 806 806 805 804 804 803 802 802 801 801 801 800 800 799 799 798 797 797 796 795 795 794 793 792 791 791 790 789
795 796 796 797 797 798 800 801 801 802 803 804 805 806 806 807 807 808 808 809 809 809 810 810 810 810 810 810 810 810 810 810 810 810 810 811 810 810 810 810 810 810 810 810 810 810 810 810 809 809 808 808 807 807 807 806 806 806 805 804 804 803 803 802 801 801 801 800 800 799 799 798 797 797 796 796 795 794 793 792 792 791 790 789 789 788
796 796 797 798 798 799 800 801 802 803 803 804 805 805 806 807 807 808 808 808 809 809 809 809 809 810 810 810 810 810 810 810 810 810 810 810 810 809 809 809 809 809 809 809 809 809 809 809 808 808 807 806 806 806 806 806 805 805 804 803 803 802 802 801 801 800 800 800 799 798 798 797 796 796 795 794 793 793 792 791 790 790 789 788 787 786
796 797 798 798 799 800 801 801 802 803 803 804 804 805 806 806 807 807 808 808 808 809 809 809 809 809 809 809 809 809 809 809 809 809 809 809 809 809 808 808 808 808 808 808 808 807 807 807 807 807 806 806 805 805 805 804 804 804 803 802 802 801 801 801 800 800 799 798 798 797 796 796 795 794 794 793 792 791 791 790 789 788 787 786 786 785
797 798 798 799 800 800 801 801 802 803 803 804 804 805 806 806 807 807 807 808 808 808 808 809 809 809 809 809 809 809 809 809 809 809 809 809 809 809 808 807 807 807 807 807 807 806 806 806 806 806 805 805 804 804 804 803 803 803 802 802 801 801 800 800 799 798 798 797 796 796 795 795 794 793 792 791 791 790 789 788 787 786 786 785 784 783
798 799 799 800 800 801 801 802 802 803 803 804 805 805 806 806 806 807 807 807 808 808 808 808 808 808 808 809 809 808 808 808 808 809 809 809 809 809 808 807 807 806 806 806 806 806 805 805 805 805 804 804 803 803 803 803 802 802 801 801 800 800 799 799 798 797 797 796 795 795 794 793 792 791 791 790 789 788 787 786 786 785 784 783 782 782
799 800 800 800 801 801 801 802 802 803 804 804 805 805 805 806 806 806 807 807 807 808 808 808 808 808 808 808 808 808 808 808 808 808 809 809 809 808 808 808 807 806 806 805 805 805 804 804 804 803 803 803 803 803 802 802 802 801 801 800 800 799 798 797 797 796 796 795 794 793 793 792 791 790 789 788 787 786 786 785 784 783 782 781 781 780
800 800 801 801 801 802 802 802 803 803 804 804 804 805 805 806 806 806 806 807 807 807 807 807 807 808 808 808 808 808 808 808 808 808 808 809 809 808 808 807 807 806 805 804 804 803 803 802 802 802 802 802 802 802 802 802 801 801 800 799 799 798 797 796 796 795 794 794 793 792 791 791 790 789 788 787 786 785 784 783 782 782 781 780 779 778
801 801 801 802 802 802 803 803 803 804 804 804 804 805 805 805 806 806 806 806 806 806 806 806 807 807 808 808 808 808 808 808 808 808 808 808 809 808 808 807 806 806 805 803 802 802 802 801 801 801 801 801 801 801 801 801 800 800 799 798 798 797 796 796 795 794 793 792 791 791 790 789 788 787 786 786 785 784 783 782 781 780 779 778 777 776
801 801 802 802 803 803 803 803 803 804 804 804 804 804 805 805 805 805 806 806 806 806 806 806 806 807 807 807 807 807 808 808 808 808 808 808 808 808 807 807 806 806 805 803 801 800 800 800 800 800 800 801 801 800 800 800 799 798 797 797 796 796 795 794 794 793 792 791 790 790 789 788 787 786 785 784 783 782 781 781 780 779 778 777 776 775
801 801 802 802 802 803 803 803 803 803 804 804 804 804 804 804 805 805 805 806 806 806 806 806 806 806 807 807 807 807 808 808 808 807 807 808 808 807 807 806 806 806 805 803 802 800 799 799 799 799 799 799 799 799 798 798 797 796 796 795 795 794 793 793 792 791 791 790 789 788 787 786 786 785 784 783 782 781 780 780 779 778 776 775 774 773
801 801 801 802 802 802 803 803 803 803 803 803 803 804 804 804 805 805 805 805 805 805 806 806 806 806 806 807 807 808 808 808 808 807 807 807 808 807 806 806 806 806 806 805 805 803 801 798 797 797 797 797 797 797 796 796 795 795 794 793 793 792 792 791 791 790 789 789 788 787 786 785 785 784 783 782 781 780 779 779 778 777 775 774 773 772
800 801 801 801 801 802 802 802 802 803 803 803 803 804 804 804 805 805 805 805 805 805 805 805 806 806 806 807 807 808 808 808 808 807 807 807 807 807 806 806 806 806 806 806 806 806 804 800 797 796 796 796 795 795 795 794 794 793 792 792 791 791 791 790 789 788 788 787 786 786 785 784 783 782 781 781 780 779 778 778 777 776 775 773 772 771
800 800 800 801 801 801 802 802 802 802 803 803 803 804 804 804 805 805 805 805 805 805 805 805 805 806 806 806 807 807 807 808 808 807 807 807 807 806 806 806 806 806 805 805 805 805 804 802 799 796 795 794 794 793 793 793 792 792 791 791 790 789 789 789 788 787 786 786 785 785 784 783 782 781 780 780 779 778 777 776 776 775 774 773 771 770
799 799 800 800 801 801 801 802 802 802 803 803 803 804 804 804 804 805 805 805 805 805 805 805 805 806 806 806 806 806 807 807 807 807 806 806 806 806 806 806 805 805 805 804 804 803 803 801 800 797 795 793 792 792 792 791 791 791 790 790 789 788 787 787 786 786 785 784 784 783 782 781 781 780 779 778 777 777 776 776 775 774 774 772 771 770
798 799 799 800 800 801 801 801 802 802 802 803 803 804 804 804 804 805 805 805 805 805 805 805 805 805 806 806 806 806 806 806 806 806 806 806 806 805 805 805 805 804 804 804 803 803 801 800 799 798 796 793 791 791 791 791 790 790 789 788 788 787 786 786 785 784 783 782 782 781 781 780 779 778 778 777 776 776 775 774 774 773 772 772 771 769
798 799 799 800 800 801 801 801 802 802 803 803 803 804 804 804 804 805 805 805 805 805 804 805 805 805 805 805 806 806 806 806 806 805 805 805 805 805 804 804 804 804 803 803 803 802 801 799 798 797 796 794 791 790 789 789 789 788 787 787 786 785 785 784 784 783 782 781 781 780 779 778 777 777 776 776 775 774 774 773 773 772 771 771 770 769
798 798 799 800 800 801 801 801 802 802 803 803 803 804 804 804 804 804 804 804 804 804 804 804 804 804 804 805 805 805 805 804 804 804 804 804 804 804 803 803 803 803 803 802 802 801 801 799 797 796 796 794 792 790 788 787 786 786 785 785 784 784 783 783 782 782 781 780 779 778 778 777 776 775 775 774 774 773 772 772 771 771 770 769 768 768
797 798 799 800 800 801 801 802 802 803 803 803 804 804 804 804 804 804 804 804 804 804 804 804 804 804 804 804 804 804 804 803 803 803 803 803 803 803 802 802 802 802 802 801 801 801 800 799 797 796 794 793 792 790 789 787 786 785 783 783 782 782 782 782 781 781 780 779 778 777 776 776 775 774 773 772 772 771 770 769 769 768 768 767 766 766
797 798 799 799 800 801 801 802 802 803 803 803 804 804 804 804 804 804 804 804 804 804 804 804 804 804 803 803 803 803 803 803 802 802 802 802 802 802 801 801 801 801 801 801 800 800 800 799 798 796 795 793 791 789 788 787 786 785 783 781 781 780 781 781 780 780 779 778 777 776 775 774 773 772 771 771 770 769 768 767 766 766 766 765 763 763
797 797 798 799 800 800 801 801 802 802 803 803 803 803 803 804 804 804 804 804 804 804 804 803 803 803 803 803 803 803 802 802 802 801 801 801 801 801 801 801 800 800 800 800 799 799 799 798 797 796 795 794 791 789 788 787 786 785 784 783 781 779 779 779 779 778 778 777 776 775 774 773 772 771 770 769 768 767 766 766 765 764 764 763 761 760
796 797 798 798 799 800 800 801 801 802 802 802 803 803 803 803 803 803 803 803 803 803 803 803 803 802 802 802 802 802 801 801 801 801 801 800 800 800 800 800 799 799 799 799 798 798 798 797 796 795 795 794 792 790 787 786 786 786 785 784 781 779 778 777 777 777 776 776 775 775 773 771 771 770 769 768 766 766 765 765 763 762 762 761 761 760
796 796 797 798 799 799 800 800 801 801 801 802 802 802 802 802 803 803 803 803 802 802 802 802 802 801 801 801 801 801 801 801 800 800 800 800 800 799 799 799 799 798 798 798 797 797 796 796 795 794 793 793 791 789 786 785 785 785 784 783 781 779 777 776 776 776 776 775 774 774 773 771 770 768 767 766 765 764 763 763 762 761 760 760 759 759
795 796 797 797 798 799 799 800 800 800 801 801 801 801 802 802 802 802 802 802 801 801 801 801 801 801 800 800 800 800 800 800 800 800 800 799 799 799 799 798 798 798 797 796 796 795 794 794 793 792 791 791 790 789 786 784 783 782 782 782 781 780 778 775 774 775 774 773 773 772 772 771 769 767 766 765 763 762 761 761 760 760 759 758 757 756
795 795 796 797 797 798 798 799 799 799 800 800 801 801 801 801 801 801 801 801 801 800 800 800 799 799 799 799 799 799 799 799 799 799 799 799 798 798 798 797 797 797 796 796 795 793 792 791 791 790 790 790 789 787 786 784 782 781 780 781 781 780 778 776 775 774 773 772 772 771 771 770 768 766 765 763 762 761 759 758 758 757 757 756 756 754
794 795 796 796 796 797 797 797 798 798 799 799 799 800 800 800 800 800 800 800 799 799 799 798 798 798 798 798 798 798 798 798 798 798 798 798 798 797 797 796 796 795 795 794 793 792 791 790 789 788 788 788 787 786 785 783 781 780 779 779 779 778 776 776 775 774 773 771 771 771 770 769 768 766 764 762 760 759 757 756 756 755 754 754 753 752
793 794 794 795 795 796 796 796 797 797 798 798 798 799 799 799 799 799 799 798 798 797 797 797 797 797 797 797 797 797 796 797 797 797 797 796 796 796 796 795 794 793 793 792 791 791 790 789 788 787 787 786 785 784 782 782 781 779 778 777 777 776 775 774 774 773 772 771 770 770 769 769 767 766 764 762 760 757 756 755 754 753 752 751 751 750
792 793 793 794 794 795 795 796 796 796 796 797 797 797 798 798 798 798 797 797 796 796 796 796 796 796 796 796 796 796 796 796 795 795 795 794 794 794 793 793 792 792 791 791 790 789 789 788 787 787 786 785 783 781 780 780 779 778 777 776 776 776 774 773 772 772 771 771 770 769 768 768 767 765 763 761 759 756 754 753 752 752 751 750 749 748
791 791 792 792 793 793 794 794 795 795 795 796 796 796 796 796 797 796 796 796 795 795 795 795 795 795 796 796 796 796 795 795 794 794 793 793 792 792 791 791 791 790 790 789 788 788 787 786 786 785 785 784 782 780 778 778 777 777 776 776 775 775 773 771 771 771 770 770 769 768 768 767 766 765 763 761 758 756 753 751 750 749 749 749 748 746
790 790 790 791 791 792 792 793 793 794 794 795 795 795 795 795 796 795 795 795 794 794 794 794 794 795 795 795 795 795 795 794 794 793 793 792 792 791 791 790 789 789 788 787 787 786 785 784 783 783 782 782 780 779 777 776 776 776 775 774 774 774 772 771 770 769 769 768 768 767 767 766 766 765 763 761 758 755 752 750 747 746 746 746 746 745
788 788 789 789 790 790 791 791 792 792 793 793 794 794 794 794 794 794 794 793 793 793 793 794 794 794 794 794 794 794 794 794 793 793 792 792 791 791 790 789 789 788 787 786 785 784 783 781 780 780 780 780 779 777 776 775 775 775 774 773 772 772 771 770 769 768 768 767 766 766 766 765 764 764 763 761 758 755 751 748 746 743 743 743 743 742
786 787 787 788 788 789 789 790 791 791 792 792 792 793 793 793 793 793 793 792 792 792 792 793 793 793 794 794 793 793 793 793 793 792 792 792 791 791 790 790 789 788 787 786 784 783 782 780 778 777 777 777 777 777 776 775 775 774 773 771 771 771 770 769 768 767 767 766 765 764 764 763 762 762 761 760 757 754 751 747 744 741 741 741 741 740
Wind_Speed
17 19 21 20 18 16 15 13 12 12 11 10 9 7 7 6 6 5 5 6 6 5 4 3 2 2 3 3 3 3 3 2 2 1 1 0 0 1 1 2 2 2 3 4 4 5 6 6 6 6 7 8 9 9 10 10 10 10 11 11 11 11 11 11 10 10 10 10 10 10 10 9 9 9 9 9 10 10 9 9 9 9 10 11 11 11
16 18 20 19 18 16 15 14 13 12 11 10 8 7 6 5 5 4 5 5 5 5 5 4 3 3 3 4 4 4 4 3 3 2 2 1 1 1 1 2 2 2 3 4 4 5 6 7 7 8 8 9 9 10 10 11 11 11 11 11 12 12 12 11 11 11 11 11 10 10 10 10 9 9 9 9 9 9 9 9 9 10 10 11 11 11
14 16 18 18 18 17 15 14 13 12 11 10 8 7 5 4 4 3 3 4 5 5 5 5 4 4 4 4 4 4 4 4 3 3 2 2 2 2 2 3 3 3 4 4 5 5 6 7 8 9 9 10 10 11 11 11 12 12 12 12 12 13 13 12 12 12 11 11 11 10 10 10 10 9 9 9 9 9 9 9 10 10 10 10 11 11
13 14 16 17 17 16 16 15 14 13 11 10 8 7 5 4 3 2 2 3 4 5 5 5 4 4 4 4 4 4 4 4 4 3 3 3 2 2 3 4 4 4 5 5 5 6 6 7 8 9 10 11 11 11 11 12 12 12 12 13 13 13 13 13 13 12 12 12 11 11 11 10 10 10 9 9 9 10 10 9 10 10 10 10 11 11
13 13 15 16 17 16 15 15 15 14 12 10 8 7 5 4 3 2 2 2 3 4 5 5 4 4 4 5 5 5 5 5 4 4 3 3 3 3 3 4 5 5 5 6 6 6 6 6 7 8 9 10 11 11 12 12 13 13 13 13 13 14 14 13 13 13 12 12 12 12 11 11 11 10 10 10 10 10 10 10 10 10 11 11 11 11
12 12 13 15 16 16 15 15 15 14 13 11 8 6 5 4 3 2 2 2 3 4 4 5 5 5 5 5 5 5 5 5 4 4 4 4 4 4 4 5 5 6 6 6 6 7 7 7 7 8 8 10 11 11 12 12 13 13 13 13 14 14 14 13 13 13 13 13 12 12 12 12 12 12 11 11 11 10 10 10 10 10 11 11 11 11
11 11 11 13 15 16 16 16 15 14 13 10 8 6 5 4 3 2 2 2 2 3 4 5 5 6 6 6 6 6 5 5 5 5 4 4 5 5 5 6 6 6 7 7 7 7 8 8 8 9 9 9 10 11 11 12 13 13 13 13 14 14 14 14 13 13 13 13 13 13 13 13 13 13 13 12 12 12 11 11 11 11 11 12 12 12
10 10 10 12 14 16 16 16 15 14 12 10 8 6 5 4 3 2 2 2 3 3 4 5 6 7 7 7 7 6 6 6 6 5 5 5 6 6 6 7 7 7 7 7 7 8 8 9 9 9 9 9 9 10 11 12 12 13 13 13 14 14 14 14 13 13 13 13 13 13 14 14 14 14 14 14 14 13 13 13 12 12 12 12 12 12
12 12 12 13 14 15 15 16 15 13 11 9 8 7 5 4 3 2 2 3 3 3 4 4 5 6 7 7 7 6 6 6 6 6 6 7 7 7 8 8 8 8 8 8 8 9 9 10 10 10 10 9 9 9 10 11 12 13 13 14 14 14 14 14 14 14 14 13 14 14 14 14 15 15 15 15 15 15 14 14 14 14 13 13 13 13
14 14 14 13 14 15 15 15 14 13 11 10 8 6 5 4 3 3 3 3 3 4 4 4 4 4 5 6 6 6 6 6 7 7 7 8 8 8 8 8 9 8 9 9 9 10 11 11 11 11 10 10 10 10 11 12 12 13 13 14 14 15 15 15 14 14 14 14 14 14 14 15 15 15 15 15 15 15 15 15 15 15 15 14 14 14
14 14 14 13 13 14 16 15 14 13 12 10 8 6 5 5 5 4 4 4 4 4 4 4 4 4 4 4 5 5 6 6 6 7 8 8 8 8 8 9 9 9 10 10 11 11 12 12 11 10 10 10 10 10 11 12 12 13 13 14 14 15 15 15 15 14 14 14 14 14 14 14 15 15 15 15 15 16 16 16 16 16 16 16 15 15
12 12 13 13 13 13 13 13 13 12 11 9 7 6 6 6 6 5 5 4 4 4 3 4 4 4 3 3 3 4 5 5 5 6 6 7 6 7 7 8 9 10 10 11 11 12 11 10 9 9 9 9 9 10 11 11 12 13 13 14 14 15 15 15 15 14 14 13 13 13 13 14 14 14 15 15 15 16 16 16 16 16 16 16 16 16
11 11 12 12 13 13 12 11 10 9 9 8 7 6 6 6 6 6 6 6 5 4 3 2 2 2 3 3 3 3 3 4 4 4 4 5 5 5 7 8 9 10 10 10 10 10 9 8 7 7 7 8 9 9 10 11 12 12 13 14 15 15 16 15 15 14 13 12 12 12 13 13 14 14 15 15 16 16 16 16 16 17 17 17 17 17
9 10 11 11 11 11 11 11 10 10 9 8 7 7 6 6 6 6 6 6 5 4 3 2 1 1 1 2 2 2 2 2 2 2 3 4 5 5 6 7 7 8 8 8 7 7 6 6 6 6 6 7 8 9 10 11 12 12 13 14 15 15 15 15 14 12 11 11 11 11 12 12 13 14 15 15 16 16 17 17 17 17 17 17 17 17
10 10 10 9 9 9 10 10 11 11 9 8 7 7 7 7 6 6 6 5 4 4 3 1 1 1 1 1 1 1 2 2 2 2 3 4 5 5 5 5 5 6 6 6 5 5 5 5 4 5 6 7 8 9 10 11 12 13 14 15 15 15 14 13 12 11 10 10 10 10 11 12 13 14 15 16 16 17 17 17 17 17 17 18 18 18
11 11 10 9 8 8 9 10 11 11 10 9 8 8 7 7 7 6 6 5 4 3 2 2 2 2 2 1 1 1 2 3 3 4 6 6 5 5 4 3 4 4 5 5 4 4 4 4 5 5 7 9 10 11 12 13 13 14 14 14 14 13 12 11 10 9 8 9 9 10 11 12 13 14 15 16 17 17 18 18 17 17 18 18 18 18
12 12 11 11 10 9 11 12 13 13 11 10 9 8 7 7 6 5 4 3 2 2 1 2 2 2 1 1 1 2 3 4 5 5 6 6 5 4 4 3 4 4 5 5 5 5 5 5 6 8 9 11 12 13 13 14 14 13 13 13 12 11 10 9 8 7 7 8 9 9 10 11 12 14 15 16 17 18 18 18 18 17 17 18 18 18
12 12 13 12 12 12 13 14 13 12 11 10 8 7 6 5 4 4 3 2 2 2 2 2 2 1 1 2 2 4 4 5 5 5 5 3 3 4 4 4 4 6 6 6 6 6 6 7 9 11 12 13 14 14 14 13 13 12 11 10 9 8 7 7 7 7 7 8 9 9 10 11 12 14 15 16 17 18 18 18 18 18 18 18 18 18
12 13 14 14 14 14 14 13 13 11 10 9 8 6 5 4 3 3 3 2 2 2 3 3 3 2 1 2 3 5 5 5 5 5 5 2 2 3 5 4 5 6 7 7 7 7 8 9 11 12 14 15 15 14 13 12 11 9 8 8 7 7 7 7 8 8 9 9 10 10 11 12 13 14 16 17 18 18 19 19 19 18 18 18 19 19
12 13 14 16 16 15 13 12 11 10 9 8 7 6 5 4 4 4 3 3 2 1 1 2 2 2 1 2 3 4 5 5 4 4 4 2 2 3 4 5 5 6 7 7 8 9 10 11 13 14 15 15 14 14 12 10 8 7 6 7 7 8 8 9 9 10 10 10 11 12 13 14 15 16 17 18 19 20 20 20 20 19 19 20 20 20
14 14 14 14 14 14 12 11 9 9 8 7 6 5 5 4 4 4 3 3 2 2 1 1 1 1 1 1 2 3 4 4 4 4 4 3 3 4 5 6 6 6 7 8 10 11 12 13 14 15 15 15 14 13 11 9 7 6 7 7 8 9 9 10 10 11 11 12 13 14 15 16 17 18 19 20 21 21 21 21 21 20 21 21 21 21
15 14 13 11 11 12 11 10 9 8 7 6 6 5 5 4 4 4 3 3 2 2 1 1 1 0 1 1 2 3 4 4 5 5 5 3 2 4 8 9 9 10 10 12 13 13 14 14 14 14 14 14 13 11 10 8 7 7 7 8 9 10 10 11 12 12 13 14 15 16 17 18 19 20 21 22 22 22 22 22 21 21 21 22 22 22
13 13 11 10 10 10 9 9 8 7 7 6 5 5 5 4 4 3 3 2 2 1 1 1 1 0 0 0 0 2 3 4 5 6 5 3 3 6 10 12 13 13 14 14 15 16 15 15 14 13 13 12 11 10 9 8 7 8 9 9 10 11 12 13 13 14 15 16 17 18 19 20 21 22 22 23 23 23 22 22 21 22 22 22 22 22
11 11 10 9 9 8 7 7 7 7 6 5 5 5 4 4 3 3 2 1 1 1 2 2 2 2 2 2 1 1 3 5 6 6 4 2 4 7 11 14 15 16 16 16 17 17 17 16 14 12 11 10 9 8 8 8 8 9 10 11 12 13 14 15 16 16 17 18 19 19 20 21 22 22 23 23 23 22 22 21 21 22 22 22 22 22
10 9 8 8 7 6 6 6 6 6 5 5 5 5 4 4 3 3 2 1 2 2 3 3 4 5 4 2 1 2 4 5 6 6 4 3 4 7 11 14 16 18 19 18 17 17 17 15 13 10 9 7 7 6 7 7 8 10 11 12 14 15 16 17 17 18 19 19 20 20 21 22 22 22 22 22 21 21 21 21 21 21 22 22 21 21
9 9 9 9 8 8 7 6 6 5 5 5 5 5 4 4 3 2 2 2 3 3 3 4 5 5 4 2 1 2 4 5 6 5 4 4 6 8 11 14 17 19 20 19 18 18 17 15 12 8 6 5 4 5 6 7 8 10 12 13 15 16 17 17 18 18 19 19 20 20 21 21 21 21 20 20 19 19 20 20 20 21 21 21 21 21
10 10 11 11 11 11 11 9 8 6 5 4 4 5 4 3 1 2 2 2 3 3 3 5 5 4 3 2 1 2 4 4 4 4 5 6 7 9 12 15 17 19 20 20 19 18 16 14 10 7 4 3 3 3 5 7 9 11 12 13 14 15 16 16 16 17 17 18 18 18 18 18 18 18 17 17 18 18 19 19 20 20 20 20 20 21
9 10 10 11 11 12 12 10 9 7 6 5 5 5 4 2 1 2 3 3 3 3 4 6 5 4 3 2 2 3 3 3 3 5 7 8 8 9 13 15 17 19 20 20 20 18 15 12 8 5 3 3 3 5 7 9 11 12 12 12 12 12 13 13 14 14 15 15 16 16 16 15 15 15 16 16 17 18 18 18 19 19 19 19 20 20
7 8 8 9 8 8 7 6 6 5 5 5 5 5 3 1 1 3 4 4 4 5 6 6 6 4 3 2 2 2 2 2 4 7 10 10 9 11 14 16 17 18 19 19 18 15 12 10 8 5 4 5 8 11 13 13 12 12 11 10 10 11 11 13 14 15 15 15 15 15 15 14 14 15 15 16 16 17 17 17 18 18 19 19 20 20
7 7 7 7 6 5 3 2 2 2 4 5 5 5 4 3 3 4 4 4 5 6 7 7 6 6 5 4 3 2 2 2 5 9 11 10 10 12 15 15 15 15 16 15 12 9 8 9 7 6 7 11 15 17 17 15 14 13 13 13 13 13 15 16 17 18 18 17 16 16 15 15 15 15 15 15 16 16 16 16 16 17 18 19 20 21
6 6 6 5 4 3 2 1 1 3 4 5 6 6 6 5 5 5 5 5 5 6 7 7 6 6 6 4 3 2 2 2 6 10 12 11 10 11 14 13 12 12 12 10 7 5 6 7 7 7 12 17 20 20 19 17 16 16 16 16 17 17 18 19 20 20 19 18 17 16 16 15 15 15 15 15 15 15 15 15 15 16 18 20 21 22
6 5 4 4 3 2 1 1 2 3 4 6 6 7 7 6 6 6 5 6 6 7 7 7 7 7 6 4 2 1 3 3 6 9 10 10 10 11 12 11 10 10 9 8 6 3 3 5 9 13 19 20 21 20 19 18 17 17 18 18 19 20 21 22 22 22 21 19 18 17 17 16 16 15 15 15 14 14 14 14 15 16 17 19 21 22
5 4 4 3 2 2 1 1 2 3 4 5 6 7 7 7 7 6 6 7 7 7 7 7 7 7 6 5 3 3 4 6 6 7 9 9 9 9 10 10 10 9 8 8 7 6 6 9 13 17 20 20 20 19 18 18 17 17 18 19 21 22 23 24 24 23 22 20 19 19 18 17 16 15 15 14 14 14 14 14 14 15 16 18 20 21
6 5 4 3 3 2 2 1 1 2 3 4 5 5 6 6 7 7 7 7 8 7 7 7 6 6 5 4 4 4 6 7 7 8 9 9 9 9 9 9 9 9 9 8 8 8 10 12 13 15 17 19 19 18 17 16 16 16 18 20 22 23 25 25 24 24 23 22 21 21 20 18 17 16 15 14 14 14 14 15 15 15 15 16 18 19
6 5 4 4 4 3 3 2 2 2 2 3 3 4 5 5 6 6 6 7 7 7 7 7 6 5 4 3 3 4 6 8 9 9 9 9 9 9 9 9 8 8 8 8 8 9 10 11 12 13 15 17 18 17 16 16 16 17 19 21 23 24 25 25 24 23 23 23 23 23 22 20 18 17 16 15 15 15 15 15 15 15 15 15 15 17
6 5 4 4 4 3 3 3 2 2 2 2 2 3 3 4 4 4 4 5 5 6 6 7 7 6 6 6 6 6 8 10 10 9 8 8 8 9 9 8 8 8 8 8 8 9 10 11 12 13 14 15 16 16 17 18 19 20 22 23 25 25 25 24 22 22 23 23 24 24 23 21 20 18 17 16 16 16 16 15 15 15 15 14 14 14
6 5 4 4 4 4 4 3 3 2 2 1 1 1 2 2 2 3 3 3 4 5 6 6 7 7 8 8 9 10 11 12 11 10 8 7 8 9 9 9 9 8 8 9 9 9 10 11 12 13 13 13 13 15 18 20 22 24 24 25 25 26 25 23 21 21 22 24 25 25 24 22 21 20 19 18 17 17 17 16 15 15 15 15 14 14
7 6 6 5 5 5 5 5 4 4 3 3 2 1 1 1 1 2 2 2 3 4 5 6 7 8 8 9 10 11 13 13 12 10 8 7 7 8 9 9 9 8 8 9 9 10 10 11 11 12 12 14 15 16 18 20 22 24 26 27 27 26 24 22 21 21 23 25 25 25 24 23 22 21 21 20 19 19 19 18 17 17 17 16 16 16
8 8 7 7 7 7 7 7 6 5 4 4 3 3 2 2 2 2 2 2 3 4 5 6 7 7 8 9 10 12 12 12 11 9 7 6 5 6 7 8 8 8 8 8 9 9 10 10 10 11 12 15 17 18 19 20 21 23 25 27 28 26 24 22 22 23 25 25 25 25 24 23 22 22 22 22 22 22 23 23 22 21 20 20 20 20
9 9 9 9 9 9 8 7 6 5 5 4 4 4 4 4 4 4 3 2 2 3 4 5 6 7 8 9 11 12 12 11 9 6 5 4 4 5 6 6 7 7 7 8 8 9 9 10 12 13 14 15 17 19 20 20 21 22 23 23 23 24 25 26 26 25 25 24 24 24 24 23 23 22 23 23 24 25 25 26 25 24 23 23 24 25
8 9 10 10 10 9 9 7 6 6 5 4 4 4 4 4 5 4 3 2 2 3 5 6 7 8 9 10 11 11 11 9 7 4 3 3 4 4 5 6 6 7 7 8 10 11 12 13 14 15 15 16 18 20 21 21 22 22 22 21 21 24 26 27 26 24 23 23 23 23 24 24 23 23 24 24 25 25 25 26 26 26 25 25 25 27
6 8 9 10 11 10 9 8 7 6 5 4 4 3 4 4 4 4 3 3 4 5 6 6 7 9 10 10 11 11 10 8 5 3 3 3 4 5 5 6 7 8 9 11 13 14 15 16 17 17 16 17 18 20 21 22 23 22 21 20 21 23 25 24 23 22 22 23 23 23 22 23 24 24 25 26 26 26 26 26 27 27 27 27 27 27
4 6 8 10 11 10 9 8 7 5 4 4 4 4 4 4 4 4 4 4 5 5 6 7 8 9 10 10 11 10 9 7 5 3 3 3 4 5 6 7 8 10 12 14 16 17 18 19 19 19 18 18 19 20 21 22 23 22 21 20 20 19 18 20 22 23 23 24 24 23 22 23 24 25 26 27 28 28 29 29 29 29 29 29 29 29
3 5 8 10 11 11 10 8 7 6 5 5 4 4 4 4 4 4 4 4 5 5 6 7 9 9 9 10 10 10 9 7 5 3 3 4 5 7 8 10 11 13 15 17 18 19 20 20 20 20 19 18 18 18 19 21 22 22 22 20 19 18 18 19 21 22 23 24 24 23 22 23 24 26 28 29 30 30 30 31 31 31 31 30 29 28
4 5 8 11 12 11 10 9 8 7 6 6 6 5 5 4 4 4 4 4 4 5 6 8 9 9 9 9 10 10 9 7 5 4 5 6 8 10 12 14 15 16 17 18 18 18 19 20 20 21 20 19 19 18 19 20 21 22 22 20 19 19 20 21 20 20 22 23 24 23 22 23 25 27 29 29 30 30 31 31 31 30 30 29 28 27
6 7 9 11 12 12 11 10 9 8 7 7 7 6 5 5 4 4 4 4 5 5 7 8 8 8 8 9 10 10 10 9 8 8 10 11 13 14 15 15 15 15 15 15 15 15 16 18 19 20 21 20 19 19 20 20 20 20 21 20 20 20 20 19 19 19 20 22 23 23 23 23 25 26 26 26 26 28 30 30 29 28 28 27 26 26
6 7 10 12 13 13 12 11 10 9 8 8 7 7 6 5 4 4 4 5 5 6 7 8 8 8 7 8 9 10 11 11 12 13 15 16 17 17 17 16 14 12 12 12 13 14 15 16 18 19 20 19 19 19 20 21 20 20 20 19 18 18 18 18 18 18 19 21 22 23 23 23 24 24 23 24 25 26 27 27 27 26 25 25 26 27
7 8 10 12 13 14 14 13 11 10 9 9 8 7 6 5 4 4 4 5 6 7 7 8 8 8 8 8 8 10 11 12 14 15 17 17 18 18 18 17 15 14 13 13 14 14 16 17 17 18 19 19 20 20 21 21 21 21 21 19 18 17 18 18 18 19 20 21 22 22 22 21 21 21 22 23 24 25 26 27 27 27 26 26 27 28
8 9 10 11 14 15 15 14 12 11 10 9 9 8 6 5 4 4 4 5 6 7 7 7 7 8 8 8 9 11 12 13 14 15 15 16 17 18 18 17 17 16 16 15 14 15 16 17 17 16 16 18 19 21 21 21 21 22 22 21 19 18 18 19 20 20 21 21 21 20 19 19 19 20 21 22 24 26 28 29 30 30 29 28 28 28
9 9 9 11 14 16 16 15 13 12 11 10 9 8 7 5 4 4 4 5 6 6 7 7 7 7 8 9 11 12 12 12 13 13 14 15 16 16 17 17 16 16 17 15 15 15 16 16 16 15 13 13 15 18 20 20 20 21 21 21 20 19 19 20 20 19 18 18 18 19 19 20 20 21 21 22 25 27 29 30 31 31 30 27 26 25
9 8 8 11 14 17 17 15 13 13 12 11 10 9 7 6 4 4 4 4 5 5 6 7 7 7 8 9 10 11 11 12 12 13 14 14 15 15 16 16 15 15 15 15 15 15 15 15 14 14 14 12 10 11 15 17 18 19 20 20 20 19 19 18 18 17 17 19 20 22 23 23 23 23 22 22 23 25 26 28 29 29 28 26 25 25
Wind_Direction
182 181 180 178 176 174 173 173 173 172 171 168 166 166 167 171 177 186 196 203 203 200 195 193 204 233 259 262 257 248 241 238 233 230 230 247 283 291 294 303 316 328 336 341 343 345 346 348 350 351 353 354 356 356 356 355 355 355 355 354 354 353 351 350 348 347 345 344 343 344 346 348 351 352 353 354 354 354 355 356 359 2 1 357 352 350
181 181 181 180 178 176 174 175 174 172 170 168 166 163 162 167 174 185 199 211 214 211 204 201 208 226 246 257 257 253 245 243 242 244 243 249 289 313 321 321 321 323 328 332 336 337 338 339 340 341 342 344 347 348 349 349 350 350 350 351 351 351 350 349 347 346 345 343 343 343 345 346 347 348 349 351 351 351 352 354 357 358 357 353 350 348
177 180 182 182 181 179 177 174 173 171 168 165 160 156 155 161 171 183 199 216 222 219 211 207 210 222 239 251 257 254 248 246 247 251 252 255 268 294 312 318 322 323 323 327 329 330 330 331 332 331 331 334 337 340 342 343 344 345 346 347 348 348 348 348 347 346 345 344 344 344 344 344 344 344 345 347 348 348 349 351 353 354 352 349 348 347
176 179 183 184 185 185 181 175 172 170 168 163 156 150 149 152 161 179 202 219 227 224 217 211 215 227 240 249 253 253 250 247 249 255 261 261 264 276 293 302 310 312 315 318 319 319 320 322 324 323 321 323 327 332 335 337 339 340 341 343 344 345 346 346 346 345 345 345 345 344 343 342 341 341 341 342 344 345 345 346 347 348 348 347 345 345
182 183 183 187 189 189 185 179 175 173 171 167 160 153 152 152 156 171 202 227 232 231 223 218 221 232 243 248 251 251 249 247 248 255 263 269 269 269 274 281 287 292 297 300 303 306 308 310 312 312 313 316 320 324 328 331 333 334 336 338 340 342 343 344 344 344 344 344 344 343 342 341 339 338 338 338 338 339 340 341 342 343 343 343 342 341
193 191 188 190 192 192 188 182 177 174 171 170 169 165 163 166 173 183 203 227 239 238 232 225 227 236 246 250 251 249 247 245 246 251 260 269 274 274 273 273 275 279 283 288 292 296 301 304 305 305 308 310 313 317 321 324 327 328 330 332 335 338 340 341 341 342 342 342 343 342 342 341 339 338 336 335 335 335 335 336 337 338 339 339 338 338
200 201 197 195 196 196 191 182 176 172 170 171 174 177 178 182 191 205 226 242 249 247 239 231 232 238 247 251 250 246 242 241 243 248 255 264 270 275 276 277 279 282 285 288 291 295 300 304 305 305 305 306 308 311 314 317 320 322 325 328 331 334 336 338 339 339 339 340 340 341 340 340 339 338 337 335 334 333 332 332 332 333 334 335 335 335
198 203 205 203 202 200 193 182 174 171 171 173 174 175 177 185 196 218 255 271 270 258 247 238 236 239 244 246 244 239 236 237 242 248 255 261 267 271 276 278 281 284 287 289 292 296 300 304 304 303 302 301 301 303 306 309 313 317 320 323 327 330 333 335 336 336 336 336 337 338 339 339 339 338 337 336 335 334 332 331 330 330 330 331 332 333
186 188 196 201 201 197 188 179 173 171 172 174 174 174 175 185 201 232 266 275 270 261 249 242 237 236 237 238 236 233 233 237 243 250 256 263 268 272 277 280 282 284 286 288 291 295 299 301 301 299 295 292 291 293 297 303 308 312 316 320 324 327 331 333 334 334 334 333 334 335 337 338 339 339 338 337 336 335 334 333 332 331 329 329 329 330
177 175 178 186 192 189 178 173 171 171 170 172 176 183 190 198 214 233 247 248 248 246 239 231 225 224 227 230 230 231 234 241 248 254 259 265 270 275 279 282 283 284 285 288 291 294 297 298 297 295 291 288 288 290 296 301 306 310 315 319 322 326 328 330 331 331 331 330 331 333 335 337 339 339 339 339 339 338 337 336 335 333 332 330 330 330
161 163 161 163 171 175 171 168 166 166 166 170 178 191 206 216 225 233 233 222 219 221 220 213 208 209 215 223 231 236 241 246 252 257 260 265 270 276 280 283 285 286 287 289 291 293 295 295 294 291 288 287 289 292 297 301 306 310 314 318 321 323 326 327 327 327 326 326 327 330 334 337 339 340 341 341 341 340 339 338 337 336 335 334 333 332
148 149 150 148 150 153 157 158 158 159 162 169 176 188 203 217 227 231 228 210 197 193 196 201 206 212 219 230 240 245 248 250 252 256 261 264 269 274 278 281 283 285 287 288 290 291 291 290 288 286 285 285 288 292 297 301 306 310 314 317 320 321 322 322 322 322 322 322 324 327 332 337 340 341 342 342 342 341 340 339 339 338 337 336 335 334
151 148 146 143 141 141 143 146 146 149 157 164 164 164 174 195 212 222 223 212 198 189 184 189 203 218 230 236 242 245 247 245 249 256 267 275 280 282 282 281 282 283 285 286 286 285 284 282 281 280 282 285 289 294 298 303 307 311 314 316 318 319 319 319 318 318 318 318 320 325 330 335 339 341 342 341 341 340 339 339 338 338 337 337 336 335
151 147 141 134 132 135 139 141 139 137 139 144 148 153 161 175 192 203 205 200 196 192 186 192 208 225 231 230 230 232 234 234 237 257 283 299 303 301 295 290 286 284 284 282 279 276 276 274 275 279 284 289 295 300 303 307 310 313 315 316 317 317 317 317 316 316 316 316 318 322 328 333 337 338 339 338 338 337 337 336 336 336 336 336 335 335
151 143 131 121 118 123 130 133 130 126 125 125 130 140 153 160 169 175 173 170 172 176 178 198 216 210 191 177 189 216 236 245 258 287 311 315 315 311 307 299 290 284 281 275 267 265 270 273 278 287 294 300 306 310 312 313 315 316 316 316 316 316 316 316 317 317 316 315 315 319 324 329 333 335 335 335 334 334 334 334 333 333 333 334 333 333
154 146 130 120 114 115 122 128 127 122 120 119 121 126 132 139 149 159 158 155 158 164 161 161 172 180 183 189 207 236 268 282 292 309 325 322 317 312 307 293 274 269 270 264 258 257 265 274 287 298 306 310 314 316 317 318 318 318 317 317 317 317 318 319 320 320 316 313 312 314 320 325 329 331 331 331 331 331 331 330 330 330 330 331 331 330
148 143 131 121 114 112 116 121 122 122 122 124 126 128 131 134 143 151 151 149 147 145 129 127 141 153 157 180 245 283 297 306 309 316 325 324 317 309 300 270 247 249 257 258 258 260 268 282 296 306 311 314 316 318 319 320 320 320 320 321 321 321 323 324 324 320 312 307 305 309 315 321 326 328 329 328 328 328 327 327 326 326 327 327 327 327
137 135 130 123 117 115 115 116 118 122 128 130 133 137 139 138 139 142 142 139 115 94 84 87 97 100 81 46 351 319 314 321 323 323 325 321 310 302 297 274 252 249 254 258 263 268 276 290 303 311 314 315 317 318 320 320 321 323 325 325 324 323 321 319 315 308 301 297 298 302 310 319 325 327 327 326 325 324 324 323 322 322 322 322 322 323
127 129 127 124 121 119 116 115 117 121 127 129 134 137 133 128 126 129 128 127 110 83 71 71 73 72 55 0 334 324 320 328 328 326 332 322 286 291 293 279 259 251 254 261 270 277 283 295 305 311 313 314 315 317 318 319 322 326 326 322 316 311 308 305 300 294 292 292 294 299 308 317 323 325 325 324 322 321 320 318 318 317 317 317 318 318
120 123 125 125 123 119 115 114 118 124 126 131 137 139 130 127 126 124 120 119 120 116 98 73 70 63 3 328 328 326 324 332 335 333 333 322 290 288 291 281 267 257 254 264 275 285 292 302 309 312 312 313 314 316 316 316 318 319 314 306 300 298 298 296 294 292 292 293 296 301 308 315 320 322 322 321 320 318 317 315 314 313 313 313 313 314
116 117 122 127 126 121 115 115 117 122 125 131 140 144 141 140 136 130 128 127 128 132 138 97 69 40 335 337 340 337 327 336 345 343 333 316 297 298 301 295 290 281 270 275 283 292 300 308 313 315 314 313 314 314 312 308 304 299 294 292 293 293 293 294 294 295 295 297 300 304 309 314 317 318 319 318 317 316 314 312 311 310 310 310 310 311
113 111 113 119 122 120 117 116 116 117 119 125 133 139 140 143 140 139 145 145 136 119 98 76 66 21 320 335 337 328 322 336 347 345 336 310 303 315 312 305 304 302 296 292 294 299 306 314 318 318 315 313 313 312 307 299 290 286 286 288 290 292 294 295 298 299 301 302 305 307 310 313 315 316 316 315 314 313 311 310 309 308 307 307 308 308
109 106 106 107 108 110 112 112 112 113 116 120 125 128 133 138 141 141 142 138 124 106 88 81 74 14 270 217 297 316 323 335 339 340 340 316 320 325 314 309 312 313 308 306 307 310 313 319 322 320 315 312 311 309 301 291 285 284 286 288 291 294 296 299 301 304 305 306 308 309 310 312 312 313 313 312 311 309 308 307 307 306 306 306 306 307
103 103 103 101 101 103 104 105 106 107 109 112 114 114 116 121 130 135 133 125 109 96 87 86 105 124 133 136 122 4 337 334 336 341 345 334 330 325 317 317 321 322 317 314 316 318 320 323 324 321 315 311 309 305 297 288 284 286 289 292 296 298 300 303 305 307 308 309 309 310 310 310 310 309 309 308 307 306 306 305 305 305 305 305 306 306
100 102 102 102 101 100 102 101 101 102 100 98 95 92 91 93 94 98 101 106 97 90 93 115 124 125 125 123 87 4 340 331 334 344 355 341 327 325 324 323 327 328 324 320 319 321 322 325 326 322 315 310 306 302 294 290 289 291 294 297 300 302 304 305 307 308 308 309 309 308 308 307 306 306 306 305 305 305 305 305 305 305 305 305 305 305
104 104 102 99 98 99 99 96 94 94 92 84 75 70 67 67 76 95 117 110 93 93 111 122 122 119 119 115 40 350 335 331 334 345 0 355 346 338 332 326 327 329 327 324 322 323 325 329 330 327 317 311 307 302 295 294 294 296 298 299 300 302 303 305 306 307 307 307 307 306 306 305 304 304 304 305 305 306 305 306 306 306 306 306 305 304
109 108 106 105 107 107 104 98 91 84 74 60 48 44 44 48 88 164 145 91 76 82 102 106 106 103 98 82 13 327 321 327 337 347 352 356 352 342 334 329 330 332 331 328 325 326 329 333 335 333 328 323 319 310 302 301 300 299 298 298 298 300 301 303 305 307 308 308 308 307 307 306 306 306 307 307 307 307 307 307 307 307 306 306 304 303
117 115 114 117 118 115 109 103 94 83 66 42 28 25 28 29 191 170 99 74 69 78 89 95 95 89 70 41 352 319 309 319 340 345 343 352 351 341 334 331 332 336 336 331 328 328 331 335 337 337 335 332 324 318 314 312 309 306 304 303 303 305 308 311 313 315 316 316 316 315 314 313 312 312 311 310 310 309 308 308 308 308 307 306 305 303
139 135 133 135 134 130 123 113 98 81 61 36 22 18 21 25 124 118 97 82 78 80 80 81 80 72 51 20 0 344 328 343 346 341 341 350 347 337 332 333 336 340 340 336 333 332 333 332 330 325 317 318 319 321 322 323 323 322 322 322 324 327 329 330 331 331 331 330 329 327 325 323 321 318 316 313 312 311 310 310 311 310 308 306 305 304
152 152 152 153 154 155 154 144 98 57 41 29 24 24 27 40 72 91 89 80 73 71 68 67 62 52 41 31 29 37 48 23 346 339 342 348 344 335 331 333 338 342 344 342 339 333 326 321 315 308 308 315 320 324 329 333 335 336 336 336 337 338 339 338 338 338 338 337 336 334 332 329 326 323 319 316 314 313 312 313 313 313 311 308 306 305
147 147 147 149 151 152 146 116 54 37 35 34 37 39 42 49 60 71 72 64 58 54 53 52 46 39 37 43 46 34 21 21 345 337 339 343 339 331 329 331 335 339 344 346 343 330 318 313 310 308 311 316 321 326 333 337 338 338 337 336 336 337 338 338 337 337 338 338 337 336 335 333 329 325 322 319 317 315 314 315 316 316 314 312 310 309
146 145 143 142 140 132 108 67 45 41 44 48 51 52 52 53 54 54 50 43 38 38 36 34 29 25 25 36 42 336 324 326 330 332 334 337 332 325 324 325 328 330 334 334 326 309 301 302 303 306 310 313 319 325 331 335 336 336 334 333 332 333 334 335 335 335 336 337 337 337 336 334 330 326 323 320 318 317 316 317 318 319 317 315 313 311
154 153 152 152 150 143 119 69 44 45 49 53 55 56 53 49 44 40 34 28 25 23 23 21 19 17 14 12 358 323 314 321 327 328 325 325 324 320 317 317 318 319 320 317 307 290 278 283 294 303 308 311 315 320 326 330 332 331 330 328 327 328 330 332 332 333 334 336 336 337 336 334 330 326 323 321 319 318 318 319 320 320 318 315 313 312
163 163 165 167 168 165 159 143 87 58 52 53 53 51 47 41 35 30 25 20 17 15 13 12 12 13 12 2 337 317 314 324 330 326 317 315 313 311 308 308 309 311 313 309 304 295 286 285 292 301 307 310 312 315 320 324 326 324 323 323 323 324 327 330 331 332 332 334 335 336 335 333 330 326 323 321 320 320 321 321 320 319 317 315 313 312
172 174 174 175 173 169 164 155 134 99 70 58 49 43 39 32 27 22 18 15 12 10 6 3 0 359 356 345 322 306 306 321 327 324 315 310 307 305 303 300 302 306 307 305 304 303 298 294 296 301 306 309 310 312 315 319 319 318 317 318 320 322 325 329 330 330 330 331 332 333 334 332 330 327 325 323 323 322 322 321 319 317 314 313 311 311
179 179 181 180 176 170 163 156 148 129 105 79 54 41 32 24 16 10 6 6 4 3 0 357 353 349 343 338 326 318 318 328 332 329 320 310 303 299 295 292 293 298 300 300 301 302 301 300 301 302 304 306 307 310 313 315 316 315 315 317 320 322 325 327 328 328 327 327 328 329 331 331 330 328 327 325 324 322 320 319 317 314 312 310 309 309
184 186 188 187 180 173 168 167 166 165 162 155 119 33 21 9 357 350 345 346 351 353 352 351 348 343 339 336 332 329 330 334 334 331 321 308 296 290 287 285 285 288 291 292 295 300 302 303 305 306 304 302 302 307 311 314 316 316 316 318 320 322 323 325 325 324 322 322 324 326 328 329 328 327 326 324 323 320 318 317 316 314 312 310 309 306
190 194 196 193 186 181 180 182 185 185 183 186 195 220 259 288 298 304 309 323 338 346 349 345 342 338 335 332 330 330 331 332 331 327 318 306 293 286 285 286 286 288 291 291 293 295 299 301 305 307 307 303 302 303 307 312 314 315 316 317 318 319 321 321 320 319 319 320 322 324 326 326 326 325 324 324 323 321 320 319 318 317 315 313 310 306
196 200 201 198 192 188 189 191 194 195 193 193 198 207 218 230 241 254 270 296 323 336 339 336 333 330 329 326 325 326 328 329 328 324 316 307 298 291 289 290 292 294 297 296 294 293 293 294 297 300 304 305 305 305 307 309 311 313 315 317 317 316 317 317 316 315 317 319 321 323 323 324 324 323 323 325 325 324 324 323 322 321 320 318 315 311
202 205 205 203 201 198 197 198 201 204 204 204 206 207 208 210 214 222 236 266 300 314 317 318 319 319 320 321 321 323 327 330 331 327 321 316 312 306 300 297 298 300 300 297 294 294 294 292 291 293 296 299 301 303 304 305 306 309 312 314 313 312 312 312 312 314 316 318 320 320 321 322 322 323 323 324 324 324 323 322 321 320 320 320 320 319
206 208 206 206 205 202 200 201 206 212 216 218 217 213 207 204 203 204 213 239 272 289 297 304 309 313 315 317 321 325 332 338 343 344 336 327 320 312 307 304 306 307 304 299 297 296 297 294 292 291 291 293 295 296 296 298 301 304 306 305 303 304 306 308 310 312 314 315 317 318 320 321 322 323 323 321 320 319 318 318 317 317 317 317 318 318
208 209 206 206 204 201 199 203 208 216 224 229 223 214 210 211 214 220 235 254 272 285 295 303 308 312 315 318 323 330 339 350 3 10 352 327 313 306 300 300 303 305 304 302 301 299 297 294 291 288 288 290 292 293 293 295 297 299 298 297 299 303 305 305 307 310 311 311 314 318 320 321 322 323 322 320 317 315 314 314 314 314 315 315 315 314
214 210 206 204 203 202 203 206 210 215 221 221 219 219 226 234 242 252 263 273 283 292 300 306 311 316 321 326 330 336 347 1 15 16 347 319 306 299 293 292 294 298 302 303 302 301 298 295 292 289 289 290 289 288 290 294 296 296 294 294 298 301 301 301 303 306 307 308 311 316 320 322 322 321 319 317 314 313 312 312 313 313 313 313 313 312
224 208 200 200 202 204 207 208 210 213 215 215 217 225 238 250 258 268 276 284 294 304 312 317 320 324 329 334 337 342 349 359 4 354 327 315 311 304 295 293 294 295 296 298 299 300 299 296 293 292 292 292 289 286 286 289 291 292 292 293 293 290 287 292 298 302 303 305 308 314 318 321 321 319 317 315 313 312 312 312 312 312 312 312 311 310
220 205 199 201 204 207 208 210 212 214 214 215 220 228 241 250 259 267 279 292 306 315 322 326 330 336 341 341 340 341 344 346 344 330 310 300 296 295 295 296 295 295 294 294 294 296 296 295 295 295 296 294 289 284 282 283 286 287 289 291 290 287 284 287 291 295 298 301 305 310 317 320 320 317 315 313 312 311 310 309 309 309 309 309 309 307
223 210 204 207 210 212 212 214 216 215 214 216 221 229 239 247 255 267 284 303 316 326 330 331 338 347 350 344 340 338 336 332 326 316 308 304 302 302 304 305 305 303 300 297 294 292 291 291 294 296 297 295 289 283 280 280 281 283 285 288 289 289 288 288 289 291 294 297 301 307 314 317 316 312 308 308 307 306 305 305 305 305 305 305 304 303
233 221 213 214 216 218 217 217 217 216 214 215 221 228 236 244 255 272 293 311 324 332 336 338 344 351 351 344 338 334 330 325 320 316 314 313 315 318 321 323 321 317 311 305 300 295 291 289 290 291 291 288 285 282 281 280 279 279 281 285 288 289 290 290 291 292 294 297 300 304 310 311 309 306 304 304 303 303 302 302 301 300 300 300 300 299
246 235 224 221 221 221 218 217 217 215 214 215 220 227 235 244 258 278 300 317 327 335 341 346 350 350 344 337 330 326 322 320 318 317 318 320 322 324 328 330 330 325 318 311 306 300 296 293 291 288 283 279 276 275 278 280 280 280 281 283 285 286 287 288 291 294 296 298 300 303 305 305 303 302 303 303 302 301 300 299 298 297 296 295 295 295
255 246 235 228 226 224 219 217 216 216 215 215 220 226 232 245 260 280 301 319 330 338 346 350 350 343 335 327 322 320 319 318 318 318 319 321 322 324 327 329 329 326 321 316 311 307 303 299 295 289 283 277 271 268 272 277 281 284 284 284 283 283 285 287 291 295 297 298 300 302 303 302 301 301 302 301 299 298 298 297 297 296 295 295 295 296
257 253 243 234 228 223 219 216 216 217 218 217 219 222 229 240 257 278 298 316 330 339 345 346 342 335 326 321 319 319 319 319 319 318 319 320 321 323 325 328 327 324 322 320 318 317 314 310 305 299 291 284 276 270 269 272 280 286 287 285 284 283 284 286 290 293 296 297 298 300 301 300 299 299 298 297 296 295 295 295 295 295 296 297 299 299
261 259 250 238 229 223 218 215 216 219 220 220 220 223 226 232 245 266 290 311 327 336 337 335 331 324 318 315 315 316 316 316 315 314 315 317 319 320 321 324 323 322 322 322 323 323 322 319 314 309 305 299 290 278 273 273 278 283 284 285 286 286 285 285 287 292 294 296 297 299 300 300 299 298 296 294 293 293 293 293 293 294 297 300 301 300